Hourly Data Report for November 05, 2020

OTTAWA INTL A
ONTARIO
Current Station Operator: NAVCAN

45°19'00.000" N
75°40'00.000" W
114.90 m
6106001
71628
YOW

Download Data

Hourly Data (November 2020)
Hourly Data Report for November 5, 2020
TIME Temp Definition
°C
Dew Point Definition
°C
Rel Hum Definition
%
Wind Dir Definition
10's deg

Wind Spd Definition
km/h
Visibility Definition
km
Stn Press Definition
kPa
Hmdx Definition


Wind Chill Definition


Weather Definition


00:00 0.5 -0.6 93 7 8 24.1 100.73     LegendNANA
01:00 -0.4 -1.3 93 7 8 24.1 100.71   -3 Mostly Cloudy
02:00 -0.2 -1.2 93 5 11 24.1 100.69   -4 LegendNANA
03:00 -0.8 -1.9 93 5 17 24.1 100.65   -6 LegendNANA
04:00 -0.8 -1.8 93 8 7 24.1 100.63   -3 Clear
05:00 -0.9 -2.0 92 4 5 24.1 100.63   -3 LegendNANA
06:00 -0.3 -1.5 92 22 3 24.1 100.62   -1 LegendNANA
07:00 7.5 3.3 75 20 12 24.1 100.66     Clear
08:00 10.7 4.8 67 20 17 24.1 100.69     LegendNANA
09:00 13.8 5.3 56 20 24 24.1 100.66     LegendNANA
10:00 15.9 5.6 50 21 30 24.1 100.61     Mainly Clear
11:00 17.2 6.0 47 21 30 24.1 100.56     LegendNANA
12:00 18.1 6.4 46 21 29 24.1 100.53     LegendNANA
13:00 19.0 6.4 43 21 21 24.1 100.50     Clear
14:00 18.6 6.5 45 22 28 24.1 100.47     LegendNANA
15:00 17.3 6.3 48 20 28 24.1 100.46     LegendNANA
16:00 16.2 6.4 52 20 21 24.1 100.47     Mostly Cloudy
17:00 14.8 6.1 56 20 15 24.1 100.53     LegendNANA
18:00 13.8 6.0 59 19 14 24.1 100.56     LegendNANA
19:00 13.0 5.8 62 20 14 24.1 100.56     Mostly Cloudy
20:00 12.6 6.1 64 20 15 24.1 100.55     LegendNANA
21:00 12.7 6.4 65 21 11 24.1 100.59     LegendNANA
22:00 12.3 6.5 68 20 9 24.1 100.62     Cloudy
23:00 12.1 6.5 68 20 7 24.1 100.60     LegendNANA

Notes on Data Quality.

Legend

  • E = Estimated
  • M = Missing
  • NA = Not Available*
  • [empty] = Indicates an unobserved value
Date modified: